When you browse on this site, cookies collect data to enhance your experience and personalize the content and advertising you see.
Visit our Privacy Policy to learn more. By continuing to use the site, you agree to this use of cookies and data.
  • In Hungary
  • List of Countries
  • For 7 days
  • Water Temperature
  • Satellite Maps
  • Weather Map
  • News
  • Weather Widgets
  • user-avatar
    Login

    Hourly Weather Chegraevo

    Today, 22 May, Wednesday

    Time Temperature Precipitation Wind Pressure Humidity
    00:00 +17°C° 0 mm 2 mps 745 mmHg 74%
    01:00 +16°C° 0 mm 2 mps 745 mmHg 76%
    02:00 +15°C° 0 mm 2 mps 745 mmHg 79%
    03:00 +15°C° 0 mm 2 mps 745 mmHg 79%
    04:00 +15°C° 0 mm 2 mps 745 mmHg 80%
    05:00 +15°C° 0 mm 2 mps 744 mmHg 81%
    06:00 +17°C° 0 mm 2 mps 744 mmHg 75%
    07:00 +19°C° 0 mm 2 mps 744 mmHg 69%
    08:00 +21°C° 0 mm 2 mps 744 mmHg 63%
    09:00 +23°C° 0 mm 2 mps 744 mmHg 59%
    10:00 +24°C° 0 mm 2 mps 744 mmHg 55%
    11:00 +25°C° 0 mm 2 mps 743 mmHg 51%
    12:00 +25°C° 0 mm 2 mps 743 mmHg 49%
    13:00 +26°C° 0 mm 2 mps 742 mmHg 47%
    14:00 +26°C° 0 mm 2 mps 742 mmHg 45%
    15:00 +25°C° 0.3 mm 2 mps 742 mmHg 52%
    16:00 +24°C° 0.3 mm 2 mps 741 mmHg 58%
    17:00 +23°C° 0.3 mm 2 mps 741 mmHg 65%
    18:00 +22°C° 0.2 mm 1 mps 741 mmHg 73%
    19:00 +20°C° 0.2 mm 1 mps 741 mmHg 80%
    20:00 +18°C° 0.2 mm 1 mps 741 mmHg 88%
    21:00 +16°C° 0.3 mm 1 mps 740 mmHg 90%
    22:00 +14°C° 0.3 mm 0 mps 740 mmHg 91%
    23:00 +14°C° 0.3 mm 0 mps 740 mmHg 92%

    Tomorrow, 23 May, Thursday

    Time Temperature Precipitation Wind Pressure Humidity
    00:00 +13°C° 0 mm 0 mps 740 mmHg 93%
    01:00 +14°C° 0 mm 1 mps 740 mmHg 93%
    02:00 +14°C° 0 mm 1 mps 740 mmHg 94%
    03:00 +14°C° 0 mm 1 mps 740 mmHg 94%
    04:00 +14°C° 0 mm 1 mps 740 mmHg 94%
    05:00 +15°C° 0 mm 1 mps 740 mmHg 94%
    06:00 +16°C° 0 mm 1 mps 740 mmHg 89%
    07:00 +18°C° 0 mm 1 mps 740 mmHg 84%
    08:00 +20°C° 0 mm 1 mps 740 mmHg 79%
    09:00 +20°C° 0.4 mm 2 mps 740 mmHg 76%
    10:00 +20°C° 0.4 mm 2 mps 740 mmHg 73%
    11:00 +21°C° 0.4 mm 2 mps 740 mmHg 70%
    12:00 +21°C° 0.3 mm 3 mps 740 mmHg 67%
    13:00 +22°C° 0.3 mm 3 mps 740 mmHg 64%
    14:00 +22°C° 0.3 mm 3 mps 741 mmHg 61%
    15:00 +21°C° 0.3 mm 3 mps 741 mmHg 64%
    16:00 +21°C° 0.3 mm 3 mps 741 mmHg 67%
    17:00 +20°C° 0.3 mm 4 mps 741 mmHg 69%
    18:00 +18°C° 0 mm 4 mps 741 mmHg 71%
    19:00 +16°C° 0 mm 3 mps 741 mmHg 73%
    20:00 +13°C° 0 mm 3 mps 742 mmHg 75%
    21:00 +11°C° 0 mm 3 mps 742 mmHg 76%
    22:00 +10°C° 0 mm 2 mps 742 mmHg 76%
    23:00 +9°C° 0 mm 2 mps 743 mmHg 77%

    Day after tomorrow, 24 May, Friday

    Time Temperature Precipitation Wind Pressure Humidity
    00:00 +9°C° 0 mm 2 mps 743 mmHg 78%
    01:00 +8°C° 0 mm 2 mps 743 mmHg 79%
    02:00 +8°C° 0 mm 2 mps 744 mmHg 80%
    03:00 +8°C° 0 mm 2 mps 744 mmHg 78%
    04:00 +9°C° 0 mm 2 mps 744 mmHg 77%
    05:00 +9°C° 0 mm 2 mps 744 mmHg 75%
    06:00 +12°C° 0 mm 2 mps 744 mmHg 70%
    07:00 +12°C° 0 mm 3 mps 745 mmHg 65%
    08:00 +14°C° 0 mm 3 mps 745 mmHg 60%
    09:00 +16°C° 0 mm 3 mps 745 mmHg 56%
    10:00 +18°C° 0 mm 3 mps 745 mmHg 51%
    11:00 +19°C° 0 mm 3 mps 745 mmHg 47%
    12:00 +20°C° 0 mm 3 mps 745 mmHg 46%
    13:00 +20°C° 0 mm 3 mps 745 mmHg 46%
    14:00 +21°C° 0 mm 3 mps 744 mmHg 45%
    15:00 +21°C° 0 mm 3 mps 744 mmHg 47%
    16:00 +20°C° 0 mm 3 mps 744 mmHg 50%
    17:00 +20°C° 0 mm 3 mps 744 mmHg 52%
    18:00 +18°C° 0 mm 3 mps 744 mmHg 58%
    19:00 +17°C° 0 mm 3 mps 744 mmHg 64%
    20:00 +14°C° 0 mm 3 mps 744 mmHg 70%
    21:00 +13°C° 0 mm 3 mps 744 mmHg 71%
    22:00 +13°C° 0 mm 3 mps 744 mmHg 71%
    23:00 +12°C° 0 mm 4 mps 744 mmHg 72%

    25 May, Saturday

    Time Temperature Precipitation Wind Pressure Humidity
    00:00 +12°C° 0 mm 4 mps 743 mmHg 72%
    01:00 +12°C° 0 mm 3 mps 743 mmHg 72%
    02:00 +11°C° 0 mm 3 mps 743 mmHg 71%
    03:00 +12°C° 0.1 mm 4 mps 742 mmHg 75%
    04:00 +12°C° 0.1 mm 4 mps 742 mmHg 78%
    05:00 +12°C° 0.1 mm 4 mps 742 mmHg 81%
    06:00 +13°C° 0.1 mm 4 mps 741 mmHg 80%
    07:00 +14°C° 0.1 mm 5 mps 741 mmHg 78%
    08:00 +15°C° 0.1 mm 5 mps 741 mmHg 77%
    09:00 +16°C° 0.1 mm 5 mps 741 mmHg 75%
    10:00 +19°C° 0.1 mm 5 mps 740 mmHg 73%
    11:00 +20°C° 0.1 mm 5 mps 740 mmHg 71%
    12:00 +19°C° 0.4 mm 5 mps 739 mmHg 74%
    13:00 +19°C° 0.4 mm 5 mps 739 mmHg 76%
    14:00 +19°C° 0.4 mm 5 mps 739 mmHg 79%
    15:00 +18°C° 0.9 mm 4 mps 738 mmHg 83%
    16:00 +17°C° 0.9 mm 4 mps 738 mmHg 88%
    17:00 +16°C° 0.9 mm 3 mps 737 mmHg 92%
    18:00 +16°C° 0.5 mm 2 mps 737 mmHg 93%
    19:00 +16°C° 0.5 mm 2 mps 737 mmHg 94%
    20:00 +15°C° 0.5 mm 1 mps 737 mmHg 96%
    21:00 +15°C° 0.5 mm 1 mps 737 mmHg 96%
    22:00 +14°C° 0.5 mm 1 mps 737 mmHg 97%
    23:00 +14°C° 0.5 mm 1 mps 737 mmHg 97%

    26 May, Sunday

    Time Temperature Precipitation Wind Pressure Humidity
    00:00 +13°C° 0 mm 2 mps 737 mmHg 97%
    01:00 +12°C° 0 mm 2 mps 737 mmHg 96%
    02:00 +10°C° 0 mm 2 mps 737 mmHg 95%
    03:00 +10°C° 0 mm 2 mps 737 mmHg 95%
    04:00 +10°C° 0 mm 2 mps 737 mmHg 94%
    05:00 +12°C° 0 mm 2 mps 737 mmHg 93%
    06:00 +13°C° 0 mm 2 mps 737 mmHg 87%
    07:00 +15°C° 0 mm 2 mps 737 mmHg 81%
    08:00 +16°C° 0 mm 2 mps 737 mmHg 75%
    09:00 +17°C° 0 mm 2 mps 737 mmHg 68%
    10:00 +18°C° 0 mm 3 mps 737 mmHg 60%
    11:00 +19°C° 0 mm 3 mps 737 mmHg 53%
    12:00 +20°C° 0 mm 4 mps 736 mmHg 51%
    13:00 +20°C° 0 mm 4 mps 736 mmHg 49%
    14:00 +20°C° 0 mm 4 mps 736 mmHg 47%
    15:00 +20°C° 0 mm 3 mps 736 mmHg 49%
    16:00 +19°C° 0 mm 3 mps 736 mmHg 50%
    17:00 +19°C° 0 mm 3 mps 736 mmHg 52%
    18:00 +17°C° 0 mm 2 mps 735 mmHg 59%
    19:00 +15°C° 0 mm 2 mps 735 mmHg 67%
    20:00 +13°C° 0 mm 1 mps 735 mmHg 75%
    21:00 +12°C° 0 mm 2 mps 735 mmHg 79%
    22:00 +12°C° 0 mm 2 mps 735 mmHg 83%
    23:00 +10°C° 0 mm 2 mps 735 mmHg 87%

    27 May, Monday

    Time Temperature Precipitation Wind Pressure Humidity
    00:00 +10°C° 0.1 mm 2 mps 734 mmHg 89%
    01:00 +10°C° 0.1 mm 3 mps 734 mmHg 90%
    02:00 +10°C° 0.1 mm 3 mps 734 mmHg 92%
    03:00 +10°C° 0.5 mm 3 mps 734 mmHg 92%
    04:00 +8°C° 0.5 mm 4 mps 734 mmHg 93%
    05:00 +8°C° 0.5 mm 4 mps 734 mmHg 94%
    06:00 +8°C° 0.4 mm 4 mps 734 mmHg 90%
    07:00 +10°C° 0.4 mm 4 mps 734 mmHg 87%
    08:00 +10°C° 0.4 mm 4 mps 734 mmHg 83%
    09:00 +10°C° 0.3 mm 5 mps 734 mmHg 76%
    10:00 +12°C° 0.3 mm 5 mps 735 mmHg 68%
    11:00 +13°C° 0.3 mm 5 mps 735 mmHg 61%
    12:00 +13°C° 0.4 mm 6 mps 735 mmHg 64%
    13:00 +11°C° 0.4 mm 6 mps 735 mmHg 67%
    14:00 +11°C° 0.4 mm 6 mps 736 mmHg 70%
    15:00 +11°C° 0.2 mm 6 mps 736 mmHg 69%
    16:00 +11°C° 0.2 mm 6 mps 736 mmHg 69%
    17:00 +12°C° 0.2 mm 5 mps 737 mmHg 69%
    18:00 +10°C° 0 mm 5 mps 737 mmHg 74%
    19:00 +10°C° 0 mm 4 mps 738 mmHg 78%
    20:00 +9°C° 0 mm 3 mps 738 mmHg 83%
    21:00 +9°C° 0 mm 3 mps 739 mmHg 86%
    22:00 +8°C° 0 mm 3 mps 739 mmHg 89%
    23:00 +8°C° 0 mm 3 mps 740 mmHg 91%
    Show more